Home   Weather   Al Khor   Past weeks

Flag for Qatar Past Weather in Al Khor, Qatar — Yesterday and Last 2 Weeks

Now
73 °F

Clear.


Feels Like: 77 °F
Forecast: 59 / 69 °F
Wind: 8 mph from Northeast

Location: Doha International Airport

Current Time: Feb 25, 2017 at 4:42:35 pm

Latest Report: Feb 25, 2017 at 3:00 pm


Visibility: 5 mi

Pressure: 30.09 "Hg

Humidity: 53%

Dew Point: 55 °F

Location of Al KhorLocation

Past Weather in Al Khor — Graph

°F

Al Khor Temperature Yesterday

Maximum temperature yesterday: 72 °F (at 11:00 am)
Minimum temperature yesterday: 63 °F (at 2:00 am)
Average temperature yesterday: 67 °F

High & Low Weather Summary for the Past Weeks

 TemperatureHumidityPressure
High75 °F (Feb 17, 1:00 pm)100% (Feb 14, 7:00 pm)30.36 "Hg (Feb 14, 7:00 pm)
Low52 °F (Feb 19, 2:00 am)40% (Feb 21, 3:00 pm)29.80 "Hg (Feb 17, 6:00 am)
Average65 °F74%30.04 "Hg
* Reported Feb 10 3:00 pm — Feb 25 3:00 pm, Al Khor, Weather by CustomWeather, © 2017

Note: Actual official high and low records may vary slightly from our data, if they occured in-between our weather recording intervals... More about our weather records

Advertising

Al Khor Weather History for the Previous 24 Hours

Scroll right to see more
 ConditionsComfort  
Time TempWeatherWind HumidityBarometerVisibility
3:00 pm
Sat, Feb 25
73 °FClear.8 mph53%30.09 "Hg5 mi
2:00 pm73 °FSunny.3 mph57%30.12 "Hg10 mi
1:00 pm72 °FPartly sunny.7 mph61%30.12 "HgN/A
12:00 pm72 °FPartly sunny.5 mph61%30.15 "HgN/A
11:00 am70 °FPartly sunny.12 mph60%30.18 "HgN/A
10:00 am70 °FSunny.13 mph64%30.18 "Hg10 mi
9:00 am66 °FSunny.13 mph78%30.18 "Hg10 mi
8:00 am64 °FClear.9 mph83%30.18 "Hg6 mi
7:00 am64 °FClear.6 mph78%30.18 "Hg6 mi
6:00 am64 °FPassing clouds.3 mph78%30.18 "HgN/A
5:00 am64 °FPassing clouds.6 mph73%30.12 "HgN/A
4:00 am64 °FPassing clouds.10 mph73%30.09 "HgN/A
3:00 am64 °FPartly cloudy.17 mph78%30.12 "HgN/A
1:00 am64 °FLight rain. Partly cloudy.8 mph78%30.15 "HgN/A
12:00 am64 °FPartly cloudy.8 mph83%30.15 "HgN/A
11:00 pm
Fri, Feb 24
64 °FPartly cloudy.7 mph78%30.18 "HgN/A
10:00 pm66 °FPartly cloudy.7 mph73%30.15 "HgN/A
9:00 pm66 °FPartly cloudy.10 mph73%30.12 "HgN/A
8:00 pm66 °FClear.12 mph73%30.12 "Hg10 mi
7:00 pm68 °FClear.14 mph69%30.12 "Hg10 mi
6:00 pm68 °FClear.17 mph73%30.09 "Hg10 mi
5:00 pm70 °FSunny.17 mph64%30.07 "Hg10 mi
4:00 pm72 °FSunny.22 mph57%30.04 "Hg10 mi
Weather by CustomWeather, © 2017

See weather overviewHow to use our weather pages